Starlink 1712

operational
NORAD ID: 46581 Int'l Des: 2020-070 Owner: SPXS Country: US Constellation: starlink
LEOCIRCULAR

Über Starlink 1712

Beschreibung wird geladen...

Live-Position

3D-Globus wird geladen...

Nächste Überflüge

Höhenverlauf

Altitude vs Time

uPlot chart will show altitude changes over time

Zweizeiliger Elementsatz

1 46581U 20070BB 26036.83335647 .00325894 00000-0 19873-2 0 9990
2 46581 53.0389 242.0372 0011642 147.2901 305.2478 15.75866717 5931
Epoch: 5. Feb. 2026 • Age: 5 hours

Aktueller Status

Höhe 334.5 km
Geschwindigkeit 7.71 km/s
Subsatellitenpunkt 11.41°N, 96.98°W
Startdatum 6. Okt. 2020
Alter 5.3 years
Typ internet

Technische Details

Klassifizierung Payload
Masse 260.00 kg
Trockenmasse 248.00 kg
Gesamtmasse 260.00 kg
Länge 0.20 m
Durchmesser 2.80 m
Spannweite 9.00 m
Form Box + pan
Hersteller SPXS
Bus-Typ Starlink
Phasenstatus In Orbit
Besitzer/Staat SPXS/US

Große Konstellationen

Loading constellations...